Retour au catalogue

STARLINK-4138

ActifCommunicationsVLEO
NORAD 53535·PAYLOAD·🇺🇸 United States

Lancé Aug 19, 2022 depuis Cape Canaveral Space Force Station

Loading…

Prochains Passages (prochaines 24 heures)

TLE

FraisSource: CelesTrak SupGP

Époque: Sep 15, 2026, 01:26 UTC

1 53535C 22101J   26258.06020833  .00012812  00000+0  36654-3 0  2580
2 53535  53.1583 295.0253 0001291  88.4530 336.1389 15.35393223    15

Suivez STARLINK-4138 en temps réel avec AllMySat

Download on the App Store